Starlink 11245

operational
NORAD ID: 60925 Int'l Des: 2024-155 Owner: SPXS Country: US Constellation: starlink
LEOCIRCULAR

About Starlink 11245

Description loading...

Live Position

Loading 3D Globe...

Upcoming Passes

Altitude History

Altitude vs Time

uPlot chart will show altitude changes over time

Two-Line Element Set

1 60925U 24155B 25259.32384389 -.00001783 00000-0 -98792-5 0 9993
2 60925 53.1592 121.0091 0000374 132.7270 227.3779 15.69696562 61019
Epoch: Sep 16, 2025 • Age: 22 hours

Current Status

Altitude 360.5 km
Velocity 7.70 km/s
Sub-Earth Point 25.19°N, 167.34°W
Launch Date Aug 31, 2024
Age 1 years
Type internet

Technical Details

Classification Payload
Mass 960.00 kg
Dry Mass 910.00 kg
Total Mass 960.00 kg
Length 0.30 m
Diameter 4.10 m
Span 29.00 m
Shape Box + pan
Manufacturer SPXS
Bus Type Starlink V2MD
Phase Status In Orbit
Owner/State SPXS/US

Large Constellations

Loading constellations...